Location: Newark
(50.9000°N, 14.8333°E)
Time: 18:49:14
(UTC+00:00)

N. Korean satellite - Pass Details

Date: 02 November 2020
Orbit: 453 x 503 km, 97.2° (Epoch: 04 December)

Event Time Altitude Azimuth Distance (km) Brightness Sun altitude
Rises 16:32:17 0° 202° (SSW) 2,520 10.7 -9.8°
Reaches altitude 10° 16:34:47 10° 221° (SW) 1,637 10.1 -10.2°
Maximum altitude 16:37:21 19° 268° (W) 1,188 9.7 -10.5°
Drops below altitude 10° 16:39:53 10° 315° (NW) 1,628 9.7 -10.9°
Sets 16:42:23 0° 334° (NNW) 2,502 10.4 -11.3°
